COSMOS 2251 DEB

Satellite information

Favourite Embed

Satellite Type and Status

DEBRISIN ORBIT

Key statistics

Satellite COSMOS 2251 DEB at a glance.

Uptime

11869

Days in orbit

Revolutions

≈ 14.1

Per day

Orbit

LEO

Low Earth Orbit

Inclination

74.0

Latest

Satellite identification and parameters

Extended collection of information and parameters for COSMOS 2251 DEB.

Object identification

Identified? True

Debris? True

Object name: COSMOS 2251 DEB

International designator: 1993-036WF

Object number (NORAD): 34610

Object ID (CCSDS): 34610

Country: COMMONWEALTH OF INDEPENDENT STATES (CIS)

Current information (Y/N): Y

RCS size: SMALL

Orbital parameters

Period: 102.341 minutes

Inclination: 74.0181 deg

SMA: 7247.572 km

Apoapsis: 1000.07 km

Periapsis: 738.804 km

RAAN: 261.5191 deg

Eccentricy: 0.01802436

Argument of periapsis: 32.0314 deg

Mean anomaly: 329.1626 deg

Mean motion: 14.07064309 rev/day

Mean motion (dot): 0.00005933 rev/day2

B* drag term: 0.0030724233 1/REarth

Two-line elements (TLE)

Creation date: Dec. 13, 2025, 5:47 p.m.

Reference frame: TEME

Reference center: EARTH

Epoch: Dec. 13, 2025, 4:42 a.m. UTC

TLE line 0: 0 COSMOS 2251 DEB

TLE line 1: 1 34610U 93036WF 25347.19587555 .00005933 00000-0 30724-2 0 9999

TLE line 2: 2 34610 74.0181 261.5191 0180244 32.0314 329.1626 14.07064309855667

Live tracking on map

Real-time ground track for satellite COSMOS 2251 DEB.

In-orbit conjunctions

A list of the most updated potential collisions computed for object COSMOS 2251 DEB.

Target Orbit TCA Probability of collision Miss distance Type
COSMOS 1249 COOLANT LEO 2025-11-06 21:34:34 0.0001847099 193.0 (m) DEBRIS
FENGYUN 1C DEB SSO 2024-08-25 21:47:15 0.000443386 71.0 (m) DEBRIS

Associated space launch

Military communications satellite. Destroyed in a collision with Iridium 33.

COSMOS 2251 DEB was lifted into orbit during the mission ‘Kosmos-3M | Strela-2M 51’, on board a Kosmos-3M space rocket.

The launch took place on June 16, 1993, 4:17 a.m. from 132/1 (132L).

For more information about the launch, click the button.

Launch to space Kosmos-3M | Strela-2M 51
Kosmos-3M | Strela-2M 51

Agency: N/A

Status: Launch Successful

Launch date: June 16, 1993, 4:17 a.m. UTC

Rocket: Kosmos-3M

Launch pad: 132/1 (132L)

Location: Plesetsk Cosmodrome, Russian Federation

...

Latest news about this satellite

There are no fresh news available about this satellite. Check back as we update our databases every day.


Newsletter sign-up

Weekly statistics, charts and insights to help you stay on top of the space industry.